[[{"header":{"parameterUnit":"m.s-1","parameterCategory":1,"la1":30.2991,"la2":30.254,"lo1":-89.0895,"lo2":-89.0444,"dy":0.0017,"dx":0.0017,"nx":28,"ny":28,"refTime":"2023-10-01T09:00:00:Z","depth":0,"parameterNumber":2,"parameterNumberName":"U-component_of_WINDS"},"data":[0,0,0,0,0,0,0,0,0,0,0,0,0,0,0,0,0,0,0,0,0,0,0,0,0,0,0,0,0,0,0,0,0,0,0,0,0,0,0,0,0,0,0,0,0,0,0,0,0,0,0,0,0,0,0,0,0,0,-3.0905,-3.0905,0,-3.0839,-3.0838,-3.0837,-3.0662,-3.0658,-3.0655,-3.0651,-3.0588,-3.059,-3.0591,0,0,0,0,0,0,0,0,0,0,0,0,0,-3.0887,-3.0888,-3.0905,-3.0905,-3.0904,-3.0839,-3.0838,-3.0837,-3.0663,-3.0658,-3.0654,-3.0649,-3.0587,-3.0589,-3.0592,0,0,0,0,0,0,0,0,0,0,0,0,0,-3.0865,-3.0888,-3.0906,-3.0809,-3.08,-3.0839,-3.0838,-3.0837,-3.0664,-3.0658,-3.0653,-3.0647,-3.0587,-3.0589,-3.0592,-3.0721,0,0,-3.06,-3.0601,0,0,0,0,0,0,0,0,-3.0867,-3.0866,-3.0824,-3.0816,-3.0805,-3.0753,-3.0808,-3.0798,-3.0665,-3.0716,-3.0651,-3.0645,-3.0648,-3.0645,-3.0645,-3.0718,-3.0715,-3.06,-3.0602,-3.0603,-3.0604,0,0,0,0,0,0,0,-3.0868,-3.0868,-3.0879,-3.0824,-3.0812,-3.077,-3.0761,-3.0805,-3.0714,-3.0711,-3.0698,-3.0692,-3.0641,-3.0643,-3.0642,-3.0715,-3.06,-3.0603,-3.0604,-3.0605,-3.0892,-3.0898,0,0,0,0,0,0,-3.0883,-3.087,-3.0881,-3.0877,-3.0823,-3.0775,-3.0765,-3.0776,-3.0713,-3.0698,-3.0697,-3.0684,-3.0641,-3.0639,-3.0639,-3.0787,-3.0603,-3.0606,-3.0607,-3.0886,-3.0893,-3.09,0,0,0,0,0,0,-3.0883,-3.0886,-3.0884,-3.087,-3.0867,-3.0782,-3.0795,-3.0777,-3.0778,-3.0703,-3.0686,-3.0715,-3.0636,-3.0636,-3.0702,-3.0783,-3.0607,-3.0609,-3.0879,-3.0888,-3.0897,-3.1085,0,0,0,0,0,0,-3.0884,-3.0887,-3.0934,-3.0872,-3.0868,-3.0947,-3.08,-3.078,-3.0783,-3.0765,-3.0715,-3.0701,-3.0632,-3.0699,-3.0705,-3.0783,-3.0612,-3.0871,-3.0883,-3.0894,-3.1071,-3.1099,-3.1123,0,0,0,0,0,-3.0883,-3.099,-3.0937,-3.094,-3.0925,-3.0952,-3.0949,-3.0866,-3.079,-3.0837,-3.0789,-3.0703,-3.0773,-3.0707,-3.0712,-3.0793,-3.0866,-3.088,-3.0893,-3.106,-3.1094,-3.1123,0,0,0,0,0,0,-3.1065,-3.0981,-3.0921,-3.101,-3.099,-3.0922,-3.0979,-3.0905,-3.0906,-3.089,-3.0788,-3.0778,-3.086,-3.0832,-3.0761,-3.0916,-3.0805,-3.0821,-3.0931,-3.0962,-3.0988,-3.0994,-3.0614,0,0,0,0,0,-3.1115,-3.1143,-3.1068,-3.1155,-3.1147,-3.1066,-3.1074,-3.1012,-3.0987,-3.0977,-3.0933,-3.0914,-3.0931,-3.0945,-3.0957,-3.1066,-3.1054,-3.1124,-3.115,-3.1172,-3.1187,-3.1245,-3.1276,-3.0944,-3.0944,-3.0944,0,0,-3.122,-3.1177,-3.1201,-3.119,-3.1166,-3.1199,-3.1059,-3.1099,-3.1123,-3.0984,-3.1044,-3.1012,-3.0983,-3.1072,-3.1109,-3.1052,-3.1276,-3.1189,-3.1207,-3.121,-3.1262,-3.1293,-3.1321,-3.0953,-3.0951,-3.095,0,0,-3.1427,-3.1397,-3.1466,-3.1445,-3.1411,-3.1356,-3.1373,-3.1317,-3.129,-3.1348,-3.1245,-3.1272,-3.1304,-3.1288,-3.1285,-3.1487,-3.1409,-3.1494,-3.1631,-3.1688,-3.1714,-3.1737,-3.1811,-3.1839,-3.1509,-3.1509,-3.1509,0,-3.1562,-3.1605,-3.1512,-3.1558,-3.1558,-3.1432,-3.1502,-3.1487,-3.146,-3.1463,-3.1398,-3.1436,-3.1408,-3.1492,-3.1542,-3.1543,-3.156,-3.15,-3.1718,-3.174,-3.1759,-3.1829,-3.1857,-3.152,-3.1519,-3.1517,-3.1516,0,-3.1773,-3.1805,-3.1865,-3.184,-3.1846,-3.1905,-3.1822,-3.184,-3.1777,-3.173,-3.1792,-3.1754,-3.1756,-3.1771,-3.1711,-3.1848,-3.1814,-3.1736,-3.1623,-3.1803,-3.1867,-3.1893,-3.1535,-3.1531,-3.1528,-3.1525,0,0,-3.2094,-3.2016,-3.204,-3.2028,-3.1981,-3.2004,-3.2058,-3.2059,-3.2077,-3.2062,-3.2106,-3.2136,-3.2064,-3.206,-3.1996,-3.2047,-3.2212,-3.1962,-3.196,-3.2011,-3.2363,-3.2423,-3.2455,-3.2159,-3.2163,-3.2167,-3.2366,0,-3.229,-3.2376,-3.2294,-3.2397,-3.2426,-3.2307,-3.2354,-3.2332,-3.229,-3.2309,-3.2263,-3.2286,-3.2188,-3.2185,-3.2229,-3.2183,-3.2281,-3.2167,-3.2201,-3.2203,-3.2213,-3.2488,-3.2552,-3.2741,-3.239,-3.2394,-3.2397,0,-3.2531,-3.2526,-3.2632,-3.2579,-3.2588,-3.2632,-3.2627,-3.2646,-3.2619,-3.2585,-3.2581,-3.2504,-3.2555,-3.2445,-3.2515,-3.2439,-3.2448,-3.2427,-3.2433,-3.2434,-3.2312,-3.2499,-3.2799,-3.2828,-3.2435,-3.2432,-3.2429,0,-3.2756,-3.2776,-3.2842,-3.2835,-3.2774,-3.2808,-3.2785,-3.2752,-3.2758,-3.2755,-3.2758,-3.2761,-3.2764,-3.2769,-3.2695,-3.2621,-3.2776,-3.2658,-3.2751,-3.2753,-3.279,-3.2789,-3.3098,-3.2794,-3.2793,-3.2793,-3.2792,0,-3.2985,-3.3055,-3.2942,-3.2983,-3.3058,-3.2964,-3.3042,-3.3007,-3.2979,-3.3012,-3.291,-3.2944,-3.2844,-3.2868,-3.2811,-3.2879,-3.2881,-3.2856,-3.284,-3.2866,-3.287,-3.2872,-3.2857,-3.28,-3.2798,-3.2797,-3.2796,0,-3.3249,-3.3176,-3.3241,-3.3178,-3.3164,-3.3223,-3.317,-3.3206,-3.3157,-3.3201,-3.3206,-3.313,-3.3153,-3.308,-3.3091,-3.3053,-3.3153,-3.3115,-3.3162,-3.3151,-3.3248,-3.3241,-3.3571,-3.361,-3.328,-3.3283,-3.3286,0,-3.34,-3.3451,-3.3394,-3.3408,-3.339,-3.3415,-3.342,-3.333,-3.3341,-3.3314,-3.3355,-3.3369,-3.3376,-3.3419,-3.3366,-3.3375,-3.3337,-3.3452,-3.3338,-3.3363,-3.3341,-3.334,-3.3345,-3.3477,-3.3481,-3.3484,-3.3487,0,-3.3678,-3.3639,-3.365,-3.365,-3.3659,-3.3655,-3.3644,-3.3662,-3.3565,-3.3583,-3.3605,-3.361,-3.3622,-3.3638,-3.3636,-3.3614,-3.3536,-3.3523,-3.3545,-3.3573,-3.3599,-3.3588,-3.3229,-3.3516,-3.3513,-3.3511,-3.3509,-3.3508,-3.3891,-3.3931,-3.3897,-3.3914,-3.3895,-3.3888,-3.3919,-3.3873,-3.3889,-3.3891,-3.3837,-3.3871,-3.3844,-3.3832,-3.3818,-3.3844,-3.3792,-3.3823,-3.3832,-3.3841,-3.3859,-3.3593,-3.3844,-3.3843,-3.3842,-3.3841,-3.384,0,-3.4164,-3.4136,-3.4152,-3.4139,-3.4153,-3.4076,-3.406,-3.4077,-3.4107,-3.4088,-3.4097,-3.4123,-3.4139,-3.4087,-3.4096,-3.4127,-3.4092,-3.4133,-3.413,-3.4127,-3.3904,-3.3885,-3.4161,-3.4161,-3.4161,-3.4161,-3.4161,-3.4161,-3.4307,-3.4372,-3.433,-3.4385,-3.4357,-3.4388,-3.4385,-3.4379,-3.4363,-3.4396,-3.4408,-3.4374,-3.4342,-3.4348,-3.436,-3.4344,-3.4353,-3.4407,-3.438,-3.4174,-3.4142,-3.4113,-3.4094,-3.441,-3.441,-3.46,-3.4602,-3.4604]},{"header":{"parameterUnit":"m.s-1","parameterCategory":1,"la1":30.2991,"la2":30.254,"lo1":-89.0895,"lo2":-89.0444,"dy":0.0017,"dx":0.0017,"nx":28,"ny":28,"refTime":"2023-10-01T09:00:00:Z","depth":0,"parameterNumber":3,"parameterNumberName":"V-component_of_WINDS"},"data":[0,0,0,0,0,0,0,0,0,0,0,0,0,0,0,0,0,0,0,0,0,0,0,0,0,0,0,0,0,0,0,0,0,0,0,0,0,0,0,0,0,0,0,0,0,0,0,0,0,0,0,0,0,0,0,0,0,0,-2.1289,-2.129,0,-2.1376,-2.1377,-2.1378,-2.1392,-2.1391,-2.139,-2.139,-2.1476,-2.1479,-2.1482,0,0,0,0,0,0,0,0,0,0,0,0,0,-2.1129,-2.1132,-2.1289,-2.129,-2.1291,-2.1376,-2.1377,-2.1379,-2.1392,-2.1391,-2.139,-2.1389,-2.1475,-2.1479,-2.1482,0,0,0,0,0,0,0,0,0,0,0,0,0,-2.1205,-2.1133,-2.1288,-2.1308,-2.1311,-2.1376,-2.1377,-2.1379,-2.1392,-2.1391,-2.139,-2.1389,-2.1474,-2.1478,-2.1483,-2.1534,0,0,-2.1497,-2.1499,0,0,0,0,0,0,0,0,-2.1201,-2.1211,-2.1304,-2.1307,-2.131,-2.1372,-2.1353,-2.1431,-2.1393,-2.1361,-2.139,-2.1388,-2.1442,-2.1449,-2.1468,-2.1538,-2.1542,-2.1497,-2.15,-2.1502,-2.1503,0,0,0,0,0,0,0,-2.1196,-2.1207,-2.1323,-2.1305,-2.1309,-2.1311,-2.1321,-2.1368,-2.1407,-2.1364,-2.1365,-2.1375,-2.1444,-2.1464,-2.147,-2.1543,-2.1497,-2.1501,-2.1504,-2.1506,-2.1657,-2.1658,0,0,0,0,0,0,-2.1187,-2.1203,-2.132,-2.1326,-2.1252,-2.1315,-2.1326,-2.1353,-2.1407,-2.1414,-2.1376,-2.1376,-2.1457,-2.1465,-2.1473,-2.1536,-2.1502,-2.1506,-2.1509,-2.1655,-2.1657,-2.1658,0,0,0,0,0,0,-2.1184,-2.1198,-2.1317,-2.1265,-2.128,-2.1319,-2.135,-2.1356,-2.1376,-2.1416,-2.1423,-2.139,-2.1456,-2.1467,-2.1519,-2.1539,-2.1508,-2.1512,-2.1654,-2.1656,-2.1658,-2.1661,0,0,0,0,0,0,-2.1179,-2.1196,-2.1217,-2.1265,-2.1283,-2.1362,-2.1351,-2.1358,-2.1384,-2.1384,-2.1431,-2.1437,-2.1456,-2.1512,-2.1523,-2.1544,-2.1516,-2.1652,-2.1655,-2.1657,-2.1659,-2.1663,-2.1666,0,0,0,0,0,-2.1173,-2.1214,-2.1218,-2.1232,-2.131,-2.1363,-2.1373,-2.1395,-2.1386,-2.1406,-2.1432,-2.1436,-2.1535,-2.1517,-2.153,-2.1553,-2.1651,-2.1654,-2.1657,-2.1658,-2.1662,-2.1666,0,0,0,0,0,0,-2.1167,-2.1221,-2.1226,-2.1284,-2.1319,-2.1365,-2.1392,-2.1399,-2.1437,-2.1435,-2.1459,-2.1469,-2.1519,-2.1541,-2.152,-2.1604,-2.1592,-2.1598,-2.1588,-2.1592,-2.1596,-2.1589,-2.1519,0,0,0,0,0,-2.1173,-2.1212,-2.1257,-2.1304,-2.1321,-2.1353,-2.1377,-2.1391,-2.1428,-2.1442,-2.1472,-2.1506,-2.1545,-2.157,-2.1608,-2.1662,-2.1671,-2.1684,-2.1687,-2.169,-2.1694,-2.1723,-2.1729,-2.1668,-2.1668,-2.1668,0,0,-2.1184,-2.1218,-2.1242,-2.1303,-2.1332,-2.1371,-2.1366,-2.1408,-2.1437,-2.1448,-2.1499,-2.1521,-2.1561,-2.1614,-2.1639,-2.1634,-2.1713,-2.1694,-2.1695,-2.1698,-2.1726,-2.1732,-2.1737,-2.167,-2.167,-2.1669,0,0,-2.1225,-2.1255,-2.1297,-2.1326,-2.137,-2.1391,-2.14,-2.1446,-2.1461,-2.1513,-2.1522,-2.1556,-2.1622,-2.165,-2.1673,-2.1722,-2.1727,-2.1734,-2.1751,-2.1778,-2.1783,-2.1787,-2.1804,-2.181,-2.1738,-2.1738,-2.1738,0,-2.1233,-2.1294,-2.1317,-2.1359,-2.1385,-2.1398,-2.1439,-2.1465,-2.1519,-2.1535,-2.1529,-2.1612,-2.164,-2.1699,-2.1711,-2.1729,-2.174,-2.1729,-2.1781,-2.1785,-2.179,-2.1806,-2.1812,-2.1739,-2.1739,-2.1738,-2.1738,0,-2.1301,-2.1343,-2.1371,-2.1423,-2.1452,-2.1493,-2.1521,-2.1548,-2.1558,-2.1579,-2.163,-2.1664,-2.1708,-2.1723,-2.1734,-2.1783,-2.1778,-2.1776,-2.1764,-2.1796,-2.1811,-2.1817,-2.1739,-2.1739,-2.1739,-2.1739,0,0,-2.1342,-2.1405,-2.1415,-2.1438,-2.1486,-2.1518,-2.1559,-2.1603,-2.1625,-2.166,-2.1694,-2.175,-2.1748,-2.1773,-2.1787,-2.1811,-2.1847,-2.1806,-2.1807,-2.1812,-2.1901,-2.1901,-2.1908,-2.185,-2.1851,-2.1852,-2.1897,0,-2.1387,-2.1462,-2.1483,-2.1546,-2.1583,-2.1595,-2.1631,-2.1663,-2.1684,-2.1717,-2.1739,-2.1778,-2.1773,-2.1789,-2.1813,-2.1837,-2.1865,-2.1834,-2.188,-2.1881,-2.1869,-2.1917,-2.1918,-2.1959,-2.1903,-2.1904,-2.1905,0,-2.1451,-2.1489,-2.1555,-2.1597,-2.1614,-2.1645,-2.1687,-2.1719,-2.1756,-2.1769,-2.1797,-2.1808,-2.1849,-2.1835,-2.1891,-2.187,-2.189,-2.1904,-2.1906,-2.1911,-2.1895,-2.1921,-2.1972,-2.1978,-2.1915,-2.1914,-2.1913,0,-2.1472,-2.1539,-2.1587,-2.1607,-2.1658,-2.1679,-2.1701,-2.1736,-2.1761,-2.1796,-2.1812,-2.1852,-2.1873,-2.1903,-2.1923,-2.1912,-2.1977,-2.1965,-2.1988,-2.1987,-2.2001,-2.2,-2.2054,-2.2015,-2.2014,-2.2014,-2.2014,0,-2.1521,-2.1561,-2.1597,-2.1627,-2.1671,-2.1694,-2.1737,-2.1759,-2.179,-2.1822,-2.1835,-2.1865,-2.1891,-2.1924,-2.194,-2.1983,-2.1993,-2.2003,-2.2007,-2.2002,-2.2001,-2.2015,-2.2013,-2.2016,-2.2016,-2.2015,-2.2015,0,-2.1552,-2.1579,-2.1632,-2.1675,-2.1687,-2.1717,-2.1754,-2.1782,-2.1802,-2.1843,-2.1854,-2.1886,-2.1925,-2.1949,-2.1998,-2.2009,-2.2056,-2.2059,-2.2044,-2.2046,-2.2067,-2.2064,-2.2132,-2.2142,-2.2096,-2.2096,-2.2097,0,-2.1582,-2.1613,-2.1659,-2.1682,-2.1705,-2.1742,-2.1767,-2.179,-2.1815,-2.1858,-2.1881,-2.1921,-2.1954,-2.2016,-2.2043,-2.208,-2.2084,-2.2105,-2.2089,-2.2083,-2.2083,-2.2081,-2.2083,-2.2107,-2.2108,-2.2108,-2.2108,0,-2.163,-2.1641,-2.1678,-2.1718,-2.1748,-2.1781,-2.1814,-2.1831,-2.186,-2.1887,-2.1928,-2.1954,-2.2004,-2.2044,-2.2083,-2.2104,-2.211,-2.2113,-2.212,-2.2115,-2.2105,-2.2109,-2.2051,-2.2111,-2.2111,-2.2111,-2.2111,-2.2111,-2.1661,-2.1688,-2.1725,-2.1765,-2.1792,-2.1821,-2.185,-2.1873,-2.1908,-2.1952,-2.1963,-2.2005,-2.2039,-2.2093,-2.2114,-2.2146,-2.2143,-2.2153,-2.2156,-2.2158,-2.2158,-2.21,-2.2154,-2.2154,-2.2153,-2.2153,-2.2153,0,-2.1709,-2.1733,-2.177,-2.1815,-2.1845,-2.185,-2.1885,-2.191,-2.1948,-2.1979,-2.2012,-2.2057,-2.2095,-2.2124,-2.2162,-2.2182,-2.2186,-2.2191,-2.219,-2.2194,-2.2159,-2.2149,-2.2188,-2.2188,-2.2188,-2.2188,-2.2188,-2.2188,-2.1738,-2.1784,-2.18,-2.1858,-2.1882,-2.1924,-2.1944,-2.1971,-2.1996,-2.2047,-2.2078,-2.2097,-2.2127,-2.2167,-2.2201,-2.2208,-2.2221,-2.2226,-2.2234,-2.2201,-2.2197,-2.2193,-2.2184,-2.2229,-2.2229,-2.2266,-2.2267,-2.2267]}]]